User: anonymous   Login
Location: Oshawa
(43.9000°N, 78.8670°W)
Time: 20:26:02
(UTC-04:00)
Language:

Cosmos 2333 Rocket - Orbit

View from above orbital plane
View from above orbital plane
View from above satellite
View from above satellite

Ground track
Ground track

The orbit data is extracted from the following two-line orbital elements,

1 24298U 96051B   16121.55710370  .00000020  00000-0  36930-4 0  9992
2 24298  70.8357 211.8636 0012614  79.0365 281.2173 14.12395575 13558
Epoch (UTC): 30 April 2016 13:22:13
Eccentricity: 0.0012614
inclination: 70.8357°
perigee height: 842 km
apogee height: 860 km
right ascension of ascending node: 211.8636°
argument of perigee: 79.0365°
revolutions per day: 14.12395575
mean anomaly at epoch: 281.2173°
orbit number at epoch: 1355

The dashed part of the orbit path shows where the satellite is in the earth's shadow,  

DLR